THY890 UZTT-LTAI

Flight info

Callsign THY890
Flight time N/A
Altitude 36000
Route DIBAD2A DIBAD N193 OGOLI T898 DARVA/N0487F360 B476 UGLEP/N0488F380 B476 METKA L88 RASAM N199 LUSAL M11 EDATA N161 INDUR UB374 ERZ UA4 SIV UT54 HALIL/N0479F390 UW77 HISAR
Aircraft B77W/H-SDE1E2E3FGHIJ2J3J4J5M1RWXY/LB1D1

Departure

Time 2026-05-07 11:31
Airport Tashkent International Airport (UZTT)

Arrival

Time N/A
Airport Antalya International Airport (LTAI)
Time Latitude Longitude Altitude Speed Heading
2026-05-07 11:19 41.25980 69.27218 1426 ft 0 kts 262°
2026-05-07 11:22 41.25982 69.27235 1426 ft 2 kts 262°
2026-05-07 11:22 41.25984 69.27254 1426 ft 2 kts 262°
2026-05-07 11:22 41.25985 69.27267 1426 ft 2 kts 258°
2026-05-07 11:23 41.25991 69.27284 1426 ft 2 kts 220°
2026-05-07 11:23 41.26004 69.27293 1426 ft 2 kts 189°
2026-05-07 11:23 41.26018 69.27293 1426 ft 2 kts 158°
2026-05-07 11:23 41.26027 69.27286 1426 ft 0 kts 138°
2026-05-07 11:24 41.26030 69.27283 1426 ft 0 kts 138°
2026-05-07 11:26 41.26015 69.27301 1426 ft 6 kts 138°
2026-05-07 11:26 41.25980 69.27341 1426 ft 6 kts 139°
2026-05-07 11:27 41.25940 69.27385 1426 ft 8 kts 140°
2026-05-07 11:27 41.25880 69.27454 1426 ft 13 kts 138°
2026-05-07 11:27 41.25807 69.27515 1426 ft 8 kts 184°
2026-05-07 11:27 41.25779 69.27467 1426 ft 12 kts 254°
2026-05-07 11:28 41.25749 69.27259 1425 ft 32 kts 261°
2026-05-07 11:28 41.25714 69.26915 1425 ft 39 kts 261°
2026-05-07 11:28 41.25675 69.26565 1425 ft 36 kts 261°
2026-05-07 11:28 41.25640 69.26244 1425 ft 33 kts 262°
2026-05-07 11:29 41.25613 69.25995 1425 ft 15 kts 262°
2026-05-07 11:29 41.25605 69.25923 1424 ft 5 kts 262°
2026-05-07 11:29 41.25602 69.25841 1424 ft 9 kts 279°
2026-05-07 11:29 41.25600 69.25779 1424 ft 3 kts 192°
2026-05-07 11:30 41.25590 69.25803 1424 ft 4 kts 82°
2026-05-07 11:30 41.25596 69.25854 1424 ft 14 kts 82°
2026-05-07 11:30 41.25659 69.26404 1425 ft 105 kts 81°
2026-05-07 11:30 41.25796 69.27715 1455 ft 179 kts 76°
2026-05-07 11:31 41.25988 69.29436 2178 ft 195 kts 78°
2026-05-07 11:31 41.26167 69.31183 3147 ft 193 kts 79°
2026-05-07 11:31 41.26370 69.32993 3551 ft 210 kts 78°
2026-05-07 11:31 41.26601 69.34993 4038 ft 222 kts 79°
2026-05-07 11:32 41.27050 69.39086 5468 ft 228 kts 83°
2026-05-07 11:32 41.27269 69.41196 6259 ft 231 kts 80°
2026-05-07 11:32 41.27515 69.43284 6985 ft 235 kts 81°
2026-05-07 11:33 41.27745 69.45410 7725 ft 235 kts 82°
2026-05-07 11:33 41.27960 69.47562 8353 ft 241 kts 82°
2026-05-07 11:33 41.28142 69.49734 9130 ft 238 kts 90°
2026-05-07 11:33 41.27853 69.51878 9775 ft 243 kts 114°
2026-05-07 11:34 41.26891 69.53733 10465 ft 250 kts 140°
2026-05-07 11:34 41.25306 69.54813 10891 ft 269 kts 170°
2026-05-07 11:34 41.23407 69.54630 11306 ft 288 kts 202°
2026-05-07 11:34 41.21755 69.53029 11716 ft 307 kts 233°
2026-05-07 11:35 41.20882 69.50418 12129 ft 324 kts 260°
2026-05-07 11:35 41.21012 69.43272 13344 ft 357 kts 274°
2026-05-07 11:35 41.21197 69.39951 13841 ft 371 kts 274°
2026-05-07 11:36 41.21388 69.36497 14296 ft 384 kts 274°